E23XBQ-1 Weather Reports


time (UTC)temp
C
wind
direction
speed
KPH
gust
KPH
rain 1hr
cm
rain 24hr
cm
rain mn
cm
humidity
%
barometer
mb
20260504210224 24 0 0.0 0.0 0.00 0.00 0.00 99 973.0
20260504205159 24 0 0.0 0.0 0.00 0.00 0.00 99 973.0
20260504204135 24 0 0.0 0.0 0.00 0.00 0.00 99 973.0
20260504203109 25 0 0.0 0.0 0.00 0.00 0.00 99 973.0
20260504202044 25 0 0.0 0.0 0.00 0.00 0.00 99 974.0
20260504201020 25 0 0.0 0.0 0.00 0.00 0.00 99 974.0
20260504195955 25 0 0.0 0.0 0.00 0.00 0.00 99 974.0
20260504194930 25 0 0.0 0.0 0.00 0.00 0.00 99 974.0
20260504193906 25 0 0.0 0.0 0.00 0.00 0.00 99 974.0
20260504192841 25 0 0.0 0.0 0.00 0.00 0.00 99 974.0
20260504191847 25 0 0.0 0.0 0.00 0.00 0.00 99 974.0
20260504191816 25 0 0.0 0.0 0.00 0.00 0.00 99 974.0
20260504190752 25 0 0.0 0.0 0.00 0.00 0.00 99 974.0
20260504185728 25 0 0.0 0.0 0.00 0.00 0.00 99 974.0
20260504184704 25 0 0.0 0.0 0.00 0.00 0.00 99 974.0
20260504183639 25 0 0.0 0.0 0.00 0.00 0.00 99 974.0
20260504182614 25 0 0.0 0.0 0.00 0.00 0.00 99 974.0
20260504181550 25 0 0.0 0.0 0.00 0.00 0.00 99 974.0
20260504180525 25 0 0.0 0.0 0.00 0.00 0.00 99 975.0
20260504175500 25 0 0.0 0.0 0.00 0.00 0.00 99 974.0
20260504174435 25 0 0.0 0.0 0.00 0.00 0.00 99 974.0
20260504173411 25 0 0.0 0.0 0.00 0.00 0.00 99 974.0
20260504172346 25 0 0.0 0.0 0.00 0.00 0.00 99 974.0
20260504171321 25 0 0.0 0.0 0.00 0.00 0.00 99 974.0
20260504170256 25 0 0.0 0.0 0.00 0.00 0.00 99 974.0
20260504150825 25 0 0.0 0.0 0.00 0.00 0.00 99 972.0
20260504140557 25 0 0.0 0.0 0.00 0.00 0.00 98 972.0
20260504130307 26 0 0.0 0.0 0.00 0.00 0.00 83 971.0
20260504100606 36 0 0.0 0.0 0.00 0.00 0.00 36 968.0
20260504081130 38 0 0.0 0.0 0.00 0.00 0.00 29 969.0
20260504080106 40 0 0.0 0.0 0.00 0.00 0.00 30 969.0
20260504050349 21 0 0.0 0.0 0.00 0.00 0.00 87 714.0
20260504045324 21 0 0.0 0.0 0.00 0.00 0.00 87 714.0
20260504044259 21 0 0.0 0.0 0.00 0.00 0.00 87 714.0
20260504043233 21 0 0.0 0.0 0.00 0.00 0.00 87 714.0
20260504042209 21 0 0.0 0.0 0.00 0.00 0.00 87 714.0
20260504041145 21 0 0.0 0.0 0.00 0.00 0.00 87 714.0
20260504040120 21 0 0.0 0.0 0.00 0.00 0.00 87 714.0
20260504035055 21 0 0.0 0.0 0.00 0.00 0.00 87 714.0
20260504034031 21 0 0.0 0.0 0.00 0.00 0.00 87 714.0
20260504033006 21 0 0.0 0.0 0.00 0.00 0.00 87 714.0
20260504031942 21 0 0.0 0.0 0.00 0.00 0.00 87 714.0
20260504030918 21 0 0.0 0.0 0.00 0.00 0.00 87 714.0
20260504025852 21 0 0.0 0.0 0.00 0.00 0.00 87 714.0
20260504024827 21 0 0.0 0.0 0.00 0.00 0.00 87 714.0
20260504023802 21 0 0.0 0.0 0.00 0.00 0.00 87 714.0
20260504022738 21 0 0.0 0.0 0.00 0.00 0.00 87 714.0
20260504021713 21 0 0.0 0.0 0.00 0.00 0.00 87 714.0
20260504020648 21 0 0.0 0.0 0.00 0.00 0.00 87 714.0
20260504015624 21 0 0.0 0.0 0.00 0.00 0.00 87 714.0
20260504014600 21 0 0.0 0.0 0.00 0.00 0.00 87 714.0
20260504013535 21 0 0.0 0.0 0.00 0.00 0.00 87 714.0
20260504012510 21 0 0.0 0.0 0.00 0.00 0.00 87 714.0
20260504011446 21 0 0.0 0.0 0.00 0.00 0.00 87 714.0
20260504010421 21 0 0.0 0.0 0.00 0.00 0.00 87 714.0
20260504005356 21 0 0.0 0.0 0.00 0.00 0.00 87 714.0
20260504004330 21 0 0.0 0.0 0.00 0.00 0.00 87 714.0
20260504003308 21 0 0.0 0.0 0.00 0.00 0.00 87 714.0
20260504002242 21 0 0.0 0.0 0.00 0.00 0.00 87 714.0
20260504001217 21 0 0.0 0.0 0.00 0.00 0.00 87 714.0
20260504000151 21 0 0.0 0.0 0.00 0.00 0.00 87 714.0
20260503235122 21 0 0.0 0.0 0.00 0.00 0.00 87 714.0
20260503234047 21 0 0.0 0.0 0.00 0.00 0.00 87 714.0
20260503233027 21 0 0.0 0.0 0.00 0.00 0.00
20260503233023 21 0 0.0 0.0 0.00 0.00 0.00 87 714.0
20260503231957 21 0 0.0 0.0 0.00 0.00 0.00 87 714.0
20260503230932 21 0 0.0 0.0 0.00 0.00 0.00 87 714.0
20260503225908 21 0 0.0 0.0 0.00 0.00 0.00 87 714.0
20260503224843 21 0 0.0 0.0 0.00 0.00 0.00 87 714.0
20260503223818 21 0 0.0 0.0 0.00 0.00 0.00 87 714.0
20260503222753 21 0 0.0 0.0 0.00 0.00 0.00 87 714.0
20260503221727 21 0 0.0 0.0 0.00 0.00 0.00 87 714.0
20260503220656 21 0 0.0 0.0 0.00 0.00 0.00 87 714.0
20260503215625 21 0 0.0 0.0 0.00 0.00 0.00 87 714.0
20260503214558 21 0 0.0 0.0 0.00 0.00 0.00 87 714.0
20260503213533 21 0 0.0 0.0 0.00 0.00 0.00 87 714.0
20260503212509 21 0 0.0 0.0 0.00 0.00 0.00 87 714.0
20260503211443 21 0 0.0 0.0 0.00 0.00 0.00 87 714.0